FW5754 Southold NY US current weather conditions

sailwx.info

Wind from 205 at 5 knots gusting 12

Air temperature 25.0° C
Dewpoint 23.2° C

Last reported at 2020-Jul-11 14:05 UTC.
Time now 2020-Jul-11 15:05 UTC

Location: N 41°06' W 072°24'.
View on Google Maps.

See reports from other nearby stations

  
Tides and Currents Weather Stations Pressure Air Temp Water Temp Dewpoint Dewpoint Depression Visibility Wind Speed Wind Dir Waves Ship Positions
date/time (UTC)wind fromknots sea level pressurealtimeterstation pressurevisibilityair tempwater tempwave heightnotes
2020-Jul-11 14:05 205 5 gusting 12 25.0
2020-Jul-11 13:55 142 5 gusting 13 25.0
2020-Jul-11 13:50 204 3 gusting 13 25.0
2020-Jul-11 13:40 243 3 gusting 10 24.4
2020-Jul-11 13:35 158 4 gusting 10 24.4
2020-Jul-11 13:31 132 2 gusting 12 24.4
2020-Jul-11 13:25 209 3 gusting 12 23.9
2020-Jul-11 13:20 209 3 gusting 13 23.9
2020-Jul-11 13:16 152 3 gusting 13 23.9
2020-Jul-11 13:10 181 4 gusting 13 23.9
2020-Jul-11 13:05 202 5 gusting 13 23.9
2020-Jul-11 13:01 230 2 gusting 10 23.9
2020-Jul-11 12:55 197 4 gusting 10 23.9
2020-Jul-11 12:50 240 5 gusting 10 23.9
2020-Jul-11 12:40 169 3 gusting 12 23.9
2020-Jul-11 12:35 217 2 gusting 10 23.3
2020-Jul-11 12:30 248 5 gusting 10 23.3
2020-Jul-11 12:25 112 4 gusting 8 23.3
2020-Jul-11 12:20 175 3 gusting 7 23.3
2020-Jul-11 12:15 238 2 gusting 12 23.3
2020-Jul-11 12:10 207 3 gusting 10 23.3
2020-Jul-11 12:05 169 4 gusting 10 23.3
2020-Jul-11 12:01 263 3 gusting 13 23.3
2020-Jul-11 11:55 198 6 gusting 14 23.3
2020-Jul-11 11:50 205 2 gusting 6 23.3
2020-Jul-11 11:40 159 1 gusting 9 23.3
2020-Jul-11 11:35 169 3 gusting 11 23.3
2020-Jul-11 11:31 184 4 gusting 11 23.3
2020-Jul-11 11:25 252 2 gusting 8 23.3
2020-Jul-11 11:20 190 4 gusting 11 23.3
2020-Jul-11 11:16 200 5 gusting 11 23.3
2020-Jul-11 11:10 174 4 gusting 11 23.3
2020-Jul-11 11:05 220 3 gusting 13 23.3
2020-Jul-11 11:00 224 4 gusting 13 23.3
2020-Jul-11 10:55 192 3 gusting 13 22.8
2020-Jul-11 10:50 117 4 gusting 13 22.8
2020-Jul-11 10:40 178 3 gusting 10 23.3
2020-Jul-11 10:35 178 5 gusting 10 23.3
2020-Jul-11 10:30 136 4 gusting 13 23.3
2020-Jul-11 10:25 200 5 gusting 13 23.3
2020-Jul-11 10:20 149 3 gusting 15 23.3
2020-Jul-11 10:15 205 6 gusting 15 23.3
2020-Jul-11 10:10 295 6 gusting 13 23.3
2020-Jul-11 10:05 240 5 gusting 10 22.8
2020-Jul-11 10:01 181 4 gusting 15 22.8
2020-Jul-11 09:55 208 5 gusting 15 22.8
2020-Jul-11 09:50 193 5 gusting 13 22.8
2020-Jul-11 09:40 195 4 gusting 13 22.8
2020-Jul-11 09:35 178 4 gusting 15 22.8
2020-Jul-11 09:31 173 5 gusting 15 22.8
2020-Jul-11 09:25 124 4 gusting 19 22.8
2020-Jul-11 09:20 155 4 gusting 19 22.8
2020-Jul-11 09:15 185 4 gusting 11 22.8
2020-Jul-11 09:10 166 3 gusting 13 22.8
2020-Jul-11 09:05 185 5 gusting 13 22.8
2020-Jul-11 09:00 198 4 gusting 15 22.8
2020-Jul-11 08:55 249 5 gusting 15 22.8
2020-Jul-11 08:50 180 4 gusting 15 22.8
2020-Jul-11 08:40 192 4 gusting 14 22.8
2020-Jul-11 08:35 192 6 gusting 14 22.8
2020-Jul-11 08:32 206 5 gusting 14 22.8
2020-Jul-11 08:25 225 4 gusting 16 22.8
2020-Jul-11 08:20 168 9 gusting 16 22.8
2020-Jul-11 08:10 196 4 gusting 14 22.8
2020-Jul-11 08:05 174 6 gusting 19 22.8
2020-Jul-11 08:00 162 6 gusting 19 22.8
2020-Jul-11 07:55 259 6 gusting 16 22.8
2020-Jul-11 07:50 150 6 gusting 17 22.8
2020-Jul-11 07:40 163 6 gusting 16 22.8
2020-Jul-11 07:35 215 4 gusting 21 22.8
2020-Jul-11 07:30 101 7 gusting 21 22.8
2020-Jul-11 07:20 188 7 gusting 19 22.8
2020-Jul-11 07:16 184 6 gusting 19 22.8
2020-Jul-11 07:10 180 6 gusting 19 22.8
2020-Jul-11 07:05 184 6 gusting 14 23.3
2020-Jul-11 07:00 196 6 gusting 17 23.3
2020-Jul-11 06:55 158 7 gusting 17 23.3
2020-Jul-11 06:50 199 6 gusting 14 23.3
2020-Jul-11 06:40 235 6 gusting 16 23.3
2020-Jul-11 06:35 238 7 gusting 16 23.3
2020-Jul-11 06:25 175 8 gusting 19 23.3
2020-Jul-11 06:20 141 7 gusting 19 23.3
2020-Jul-11 06:15 154 8 gusting 17 23.3
2020-Jul-11 06:10 170 6 gusting 17 23.3
2020-Jul-11 06:05 169 7 gusting 19 23.3
2020-Jul-11 05:55 133 6 gusting 18 23.3
2020-Jul-11 05:50 181 8 gusting 19 23.3
2020-Jul-11 05:40 175 7 gusting 18 23.3
2020-Jul-11 05:35 207 6 gusting 19 23.3
2020-Jul-11 05:26 219 7 gusting 20 23.3
2020-Jul-11 05:20 183 7 gusting 20 23.3
2020-Jul-11 05:16 148 7 gusting 16 23.3
2020-Jul-11 05:10 187 6 gusting 13 23.3
2020-Jul-11 05:05 142 6 gusting 13 23.3
2020-Jul-11 05:01 198 6 gusting 13 23.3
2020-Jul-11 04:55 183 6 gusting 16 23.3
2020-Jul-11 04:51 249 6 gusting 24 23.3
2020-Jul-11 04:47 256 6 gusting 19 22.8
2020-Jul-11 04:40 205 7 gusting 19 22.8
2020-Jul-11 04:35 175 5 gusting 14 22.8
2020-Jul-11 04:31 123 6 gusting 19 22.8
2020-Jul-11 04:25 163 5 gusting 13 22.8
2020-Jul-11 04:20 163 7 gusting 22 22.8
2020-Jul-11 04:15 173 6 gusting 22 23.3
2020-Jul-11 04:10 154 7 gusting 21 23.3
2020-Jul-11 04:05 232 5 gusting 21 23.3
2020-Jul-11 04:01 137 5 gusting 18 23.3
2020-Jul-11 03:55 157 5 gusting 18 23.3
2020-Jul-11 03:50 153 6 gusting 16 23.3
2020-Jul-11 03:40 205 8 gusting 17 23.3
2020-Jul-11 03:35 126 6 gusting 15 23.3
2020-Jul-11 03:31 186 6 gusting 17 23.3
2020-Jul-11 03:25 117 6 gusting 17 23.3
2020-Jul-11 03:20 122 9 gusting 17 23.3
2020-Jul-11 03:16 158 6 gusting 19 23.3
2020-Jul-11 03:10 162 4 gusting 19 23.3
2020-Jul-11 03:05 152 5 gusting 17 23.3
2020-Jul-11 03:02 154 6 gusting 16 23.3
2020-Jul-11 02:55 136 8 gusting 15 23.3
2020-Jul-11 02:50 148 6 gusting 14 23.3
2020-Jul-11 02:40 106 5 gusting 19 23.3
2020-Jul-11 02:35 188 4 gusting 14 23.3
2020-Jul-11 02:31 211 5 gusting 13 23.3
2020-Jul-11 02:25 156 6 gusting 15 23.3
2020-Jul-11 02:20 110 6 gusting 16 23.3
2020-Jul-11 02:16 140 6 gusting 16 23.3
2020-Jul-11 02:10 189 6 gusting 16 23.3
2020-Jul-11 02:05 171 6 gusting 19 23.3
2020-Jul-11 02:00 167 9 gusting 19 23.3
2020-Jul-11 01:55 182 6 gusting 14 23.3
2020-Jul-11 01:50 153 7 gusting 21 23.3
2020-Jul-11 01:40 168 6 gusting 15 23.3
2020-Jul-11 01:35 119 6 gusting 18 23.3
2020-Jul-11 01:31 128 7 gusting 19 23.3
2020-Jul-11 01:25 160 6 gusting 15 23.3
2020-Jul-11 01:20 178 5 gusting 13 23.3
2020-Jul-11 01:15 142 6 gusting 11 23.3
2020-Jul-11 01:10 149 6 gusting 13 23.3
2020-Jul-11 01:05 141 6 gusting 13 23.3
2020-Jul-11 01:01 142 6 gusting 10 23.3
2020-Jul-11 00:55 114 3 gusting 11 23.3
2020-Jul-11 00:50 185 5 gusting 11 23.3
2020-Jul-11 00:40 162 8 gusting 15 23.3
2020-Jul-11 00:35 155 7 gusting 20 23.3
2020-Jul-11 00:30 134 6 gusting 15 23.3
2020-Jul-11 00:25 194 6 gusting 13 23.3
2020-Jul-11 00:20 157 6 gusting 13 23.9
2020-Jul-11 00:15 180 6 gusting 13 23.9
2020-Jul-11 00:10 144 8 gusting 14 23.9
2020-Jul-11 00:05 205 6 gusting 15 23.9
2020-Jul-11 00:00 136 7 gusting 17 23.9
2020-Jul-10 23:55 111 6 gusting 17 23.9
2020-Jul-10 23:50 104 6 gusting 14 23.9
2020-Jul-10 23:40 071 7 gusting 12 23.3
2020-Jul-10 23:30 119 4 gusting 9 23.3
2020-Jul-10 23:25 117 4 gusting 13 23.3
2020-Jul-10 23:20 181 5 gusting 13 23.3
2020-Jul-10 23:15 080 4 gusting 9 23.3
2020-Jul-10 23:10 200 3 gusting 9 23.3
2020-Jul-10 23:05 049 4 gusting 11 23.3
2020-Jul-10 23:01 142 5 gusting 11 23.3
2020-Jul-10 22:55 179 6 gusting 16 23.3
2020-Jul-10 22:50 140 3 gusting 16 23.3
2020-Jul-10 22:40 143 4 gusting 11 22.8
2020-Jul-10 22:35 082 5 gusting 14 23.3
2020-Jul-10 22:30 218 4 gusting 19 23.3
2020-Jul-10 22:25 111 5 gusting 19 23.3
2020-Jul-10 22:20 180 6 gusting 13 23.3
2020-Jul-10 22:15 157 6 gusting 12 23.3
2020-Jul-10 22:10 136 4 gusting 13 23.9
2020-Jul-10 22:05 115 6 gusting 13 23.9
2020-Jul-10 22:00 122 4 gusting 10 23.9
2020-Jul-10 21:55 100 3 gusting 12 23.9
2020-Jul-10 21:50 170 4 gusting 12 23.9
2020-Jul-10 21:40 136 3 gusting 13 24.4
2020-Jul-10 21:35 185 4 gusting 12 24.4
2020-Jul-10 21:30 123 6 gusting 12 24.4
2020-Jul-10 21:25 040 4 gusting 11 24.4
2020-Jul-10 21:20 100 5 gusting 12 23.9
2020-Jul-10 21:10 180 4 gusting 12 23.9
2020-Jul-10 21:05 128 1 gusting 9 23.9
2020-Jul-10 21:00 129 3 gusting 10 23.9
2020-Jul-10 20:55 171 3 gusting 12 23.9
2020-Jul-10 20:50 207 5 gusting 13 24.4
2020-Jul-10 20:40 121 5 gusting 11 23.9
2020-Jul-10 20:35 144 3 gusting 10 23.9
2020-Jul-10 20:30 111 3 gusting 8 24.4
2020-Jul-10 20:25 150 4 gusting 12 24.4
2020-Jul-10 20:20 136 5 gusting 15 24.4
2020-Jul-10 20:10 128 6 gusting 12 24.4
2020-Jul-10 20:05 173 3 gusting 8 24.4
2020-Jul-10 19:55 143 3 gusting 12 23.9
2020-Jul-10 19:50 131 3 gusting 12 23.9
2020-Jul-10 19:40 140 2 gusting 10 23.9
2020-Jul-10 19:35 099 2 gusting 12 23.9
2020-Jul-10 19:30 115 6 gusting 12 23.9
2020-Jul-10 19:25 121 1 gusting 6 23.9
2020-Jul-10 19:20 109 1 gusting 7 23.3
2020-Jul-10 19:15 063 2 gusting 9 23.3
2020-Jul-10 19:10 089 3 gusting 9 23.3
2020-Jul-10 19:05 146 4 gusting 9 23.3
2020-Jul-10 18:55 185 3 gusting 10 23.3
2020-Jul-10 18:50 145 4 gusting 13 23.3
2020-Jul-10 18:35 140 2 gusting 13 23.3
2020-Jul-10 18:31 080 1 gusting 9 23.3
2020-Jul-10 18:25 106 5 gusting 9 23.3
2020-Jul-10 18:20 024 4 gusting 8 23.3
2020-Jul-10 18:16 136 3 gusting 8 23.3
2020-Jul-10 18:11 082 4 gusting 7 23.3
2020-Jul-10 18:05 180 2 gusting 8 23.3
2020-Jul-10 18:00 116 2 gusting 10 23.3
2020-Jul-10 17:55 128 3 gusting 13 23.3
2020-Jul-10 17:50 158 4 gusting 13 23.3
2020-Jul-10 17:46 117 4 gusting 10 22.8
2020-Jul-10 17:35 094 3 gusting 10 22.8
2020-Jul-10 17:31 173 1 gusting 9 22.8
2020-Jul-10 17:25 210 3 gusting 9 22.8
2020-Jul-10 17:20 119 4 gusting 9 22.8
2020-Jul-10 17:16 193 3 gusting 10 22.8
2020-Jul-10 17:10 112 2 gusting 9 22.8
2020-Jul-10 17:05 124 2 gusting 8 22.8
2020-Jul-10 17:00 098 1 gusting 7 23.3
2020-Jul-10 16:55 144 1 gusting 8 22.8
2020-Jul-10 16:50 098 3 gusting 8 22.8
2020-Jul-10 16:46 107 1 gusting 6 22.8
2020-Jul-10 16:35 173 2 gusting 6 22.8
2020-Jul-10 16:30 114 2 gusting 6 22.8
2020-Jul-10 16:25 115 3 gusting 6 22.8
2020-Jul-10 16:20 162 2 gusting 11 22.8
2020-Jul-10 16:15 142 3 gusting 12 22.8
2020-Jul-10 16:10 103 4 gusting 12 22.8
2020-Jul-10 16:05 152 3 gusting 8 22.8
2020-Jul-10 16:00 128 1 gusting 7 22.8
2020-Jul-10 15:55 067 3 gusting 9 22.8
2020-Jul-10 15:50 080 3 gusting 9 22.8
2020-Jul-10 15:45 102 1 gusting 7 22.8
2020-Jul-10 15:35 094 3 gusting 10 22.2
2020-Jul-10 15:30 089 1 gusting 9 22.2
2020-Jul-10 15:25 113 3 gusting 9 22.2
2020-Jul-10 15:20 071 1 gusting 8 22.2
2020-Jul-10 15:15 135 0 gusting 8 22.2
2020-Jul-10 15:10 157 1 gusting 7 22.2
2020-Jul-10 15:05 073 1 gusting 6 22.2
2020-Jul-10 14:55 080 1 gusting 8 22.2
2020-Jul-10 14:46 092 2 gusting 8 22.2
2020-Jul-10 14:35 082 2 gusting 8 22.2
2020-Jul-10 14:30 086 2 gusting 9 21.7
2020-Jul-10 14:25 085 1 gusting 9 21.7
2020-Jul-10 14:20 090 3 gusting 8 21.7
2020-Jul-10 14:10 119 0 gusting 8 21.7
2020-Jul-10 14:00 049 2 gusting 8 21.7
2020-Jul-10 13:55 064 1 gusting 8 21.7
2020-Jul-10 13:50 111 1 gusting 8 21.7
2020-Jul-10 13:35 120 3 gusting 8 21.7
2020-Jul-10 13:25 061 2 gusting 6 21.7
2020-Jul-10 13:20 119 1 gusting 7 21.7
2020-Jul-10 13:15 076 1 gusting 9 21.7
2020-Jul-10 13:10 090 2 gusting 8 21.7
2020-Jul-10 13:05 096 3 gusting 8 21.7
2020-Jul-10 12:55 109 2 gusting 9 21.7
2020-Jul-10 12:50 094 1 gusting 11 21.7
2020-Jul-10 12:45 054 2 gusting 7 21.7
2020-Jul-10 12:35 136 3 gusting 7 22.2
2020-Jul-10 12:25 151 2 gusting 8 22.2
2020-Jul-10 12:20 116 2 gusting 8 22.2
2020-Jul-10 12:10 092 2 gusting 9 22.2
2020-Jul-10 12:00 144 1 gusting 9 22.2
2020-Jul-10 11:55 049 4 gusting 9 22.2
2020-Jul-10 11:50 106 2 gusting 6 22.2
2020-Jul-10 11:35 074 1 gusting 7 22.2
2020-Jul-10 11:30 167 1 gusting 7 21.7
2020-Jul-10 11:25 107 3 gusting 7 21.7
2020-Jul-10 11:20 090 1 gusting 6 22.2
2020-Jul-10 11:15 069 3 gusting 6 22.2
2020-Jul-10 11:10 115 1 gusting 6 22.2
2020-Jul-10 11:05 088 1 gusting 6 22.2
2020-Jul-10 11:00 102 0 gusting 6 21.7
2020-Jul-10 10:55 086 1 gusting 6 21.7
2020-Jul-10 10:50 128 2 gusting 6 21.7
2020-Jul-10 10:45 096 2 gusting 7 21.7
2020-Jul-10 10:36 131 1 gusting 8 21.7
2020-Jul-10 10:32 142 3 gusting 8 21.7
2020-Jul-10 10:30 157 2 gusting 8 21.7
2020-Jul-10 10:25 176 1 gusting 6 21.7
2020-Jul-10 10:16 150 0 gusting 6 21.7
2020-Jul-10 10:10 154 1 gusting 5 21.7
2020-Jul-10 10:05 140 1 gusting 6 21.7
2020-Jul-10 10:03 110 1 gusting 3 22.2
2020-Jul-10 09:56 107 0 gusting 4 22.2
2020-Jul-10 09:51 086 1 gusting 4 22.2
2020-Jul-10 09:47 109 1 gusting 5 22.2
2020-Jul-10 09:35 132 0 gusting 6 21.7
2020-Jul-10 09:32 100 1 gusting 6 21.7
2020-Jul-10 09:25 116 0 gusting 3 21.7
2020-Jul-10 09:21 108 0 gusting 3 21.7
2020-Jul-10 09:16 110 1 gusting 3 21.7
2020-Jul-10 09:10 097 21.7
2020-Jul-10 09:05 093 0 gusting 3 21.7
2020-Jul-10 09:01 110 0 gusting 3 21.7
2020-Jul-10 08:55 087 21.7
2020-Jul-10 08:50 086 1 gusting 5 21.7
2020-Jul-10 08:47 075 0 gusting 4 21.7
2020-Jul-10 08:35 160 21.7
2020-Jul-10 08:31 093 21.7
2020-Jul-10 08:25 134 0 gusting 3 21.7
2020-Jul-10 08:21 127 0 gusting 2 21.7
2020-Jul-10 08:16 130 0 gusting 3 21.7
2020-Jul-10 08:10 094 0 gusting 5 22.2
2020-Jul-10 08:06 092 1 gusting 5 22.2
2020-Jul-10 08:01 126 0 gusting 3 22.2
2020-Jul-10 07:55 126 0 gusting 3 22.2
2020-Jul-10 07:51 061 0 gusting 2 22.8
2020-Jul-10 07:46 138 0 gusting 3 22.8
2020-Jul-10 07:35 111 22.2
2020-Jul-10 07:32 065 22.2
2020-Jul-10 07:26 065 21.7
2020-Jul-10 07:20 065 0 gusting 2 21.7
2020-Jul-10 07:16 065 0 gusting 2 22.2
2020-Jul-10 07:11 160 22.2
2020-Jul-10 07:06 160 22.2
2020-Jul-10 07:01 160 22.2
2020-Jul-10 06:56 160 22.2
2020-Jul-10 06:50 160 22.2
2020-Jul-10 06:46 160 22.2
2020-Jul-10 06:36 160 22.2
2020-Jul-10 06:31 160 0 gusting 2 22.2
2020-Jul-10 06:25 160 22.2
2020-Jul-10 06:20 160 0 gusting 2 22.2
2020-Jul-10 06:16 160 0 gusting 2 22.2
2020-Jul-10 06:10 161 22.2
2020-Jul-10 06:05 161 0 gusting 2 22.2
2020-Jul-10 06:01 162 0 gusting 2 22.2
2020-Jul-10 05:56 162 0 gusting 2 22.2
2020-Jul-10 05:51 162 22.2
2020-Jul-10 05:46 162 22.2
2020-Jul-10 05:36 162 0 gusting 2 22.2
2020-Jul-10 05:31 162 22.2
2020-Jul-10 05:25 162 22.2
2020-Jul-10 05:20 162 22.2
2020-Jul-10 05:16 162 22.2
2020-Jul-10 05:10 162 22.2
2020-Jul-10 05:05 162 22.2
2020-Jul-10 05:02 162 22.2
2020-Jul-10 04:55 162 0 gusting 1 22.2
2020-Jul-10 04:50 162 22.2
2020-Jul-10 04:45 162 22.8
2020-Jul-10 04:35 162 22.8
2020-Jul-10 04:32 162 22.8
2020-Jul-10 04:25 162 22.8
2020-Jul-10 04:20 162 22.8
2020-Jul-10 04:16 162 22.8
2020-Jul-10 04:10 162 0 gusting 2 22.8
2020-Jul-10 04:05 162 0 gusting 2 22.8
2020-Jul-10 04:00 162 0 gusting 2 22.8
2020-Jul-10 03:55 162 0 gusting 4 22.8
2020-Jul-10 03:50 163 0 gusting 2 22.8
2020-Jul-10 03:45 163 0 gusting 2 22.8
2020-Jul-10 03:35 163 22.8
2020-Jul-10 03:31 163 0 gusting 2 22.8
2020-Jul-10 03:25 163 22.8
2020-Jul-10 03:20 163 22.8
2020-Jul-10 03:18 163 22.8
2020-Jul-10 03:05 163 22.8
2020-Jul-10 03:01 163 22.8
2020-Jul-10 02:55 163 22.8
2020-Jul-10 02:50 163 22.8
2020-Jul-10 02:46 163 23.3
2020-Jul-10 02:35 163 23.3
2020-Jul-10 02:30 163 23.3
2020-Jul-10 02:25 163 23.3
2020-Jul-10 02:20 163 23.3
2020-Jul-10 02:16 163 23.3
2020-Jul-10 02:10 163 23.3
2020-Jul-10 02:05 163 23.3
2020-Jul-10 02:00 163 0 gusting 2 23.3
2020-Jul-10 01:55 163 1 gusting 3 23.9
2020-Jul-10 01:50 163 0 gusting 3 23.9
2020-Jul-10 01:46 163 0 gusting 1 23.9
2020-Jul-10 01:35 163 0 gusting 4 23.9
2020-Jul-10 01:30 163 1 gusting 4 23.9
2020-Jul-10 01:25 163 0 gusting 1 24.4
2020-Jul-10 01:20 163 0 gusting 1 24.4
2020-Jul-10 01:15 163 24.4
2020-Jul-10 01:10 163 24.4
2020-Jul-10 01:05 163 24.4
2020-Jul-10 01:00 163 24.4
2020-Jul-10 00:55 163 1 gusting 4 24.4
2020-Jul-10 00:50 163 0 gusting 4 25.0
2020-Jul-10 00:46 169 0 gusting 3 25.0
2020-Jul-10 00:35 169 0 gusting 5 25.0
2020-Jul-10 00:30 165 1 gusting 6 25.0
2020-Jul-10 00:25 195 0 gusting 6 25.0
2020-Jul-10 00:20 184 1 gusting 4 25.6
2020-Jul-10 00:16 169 1 gusting 4 25.6
2020-Jul-10 00:10 169 0 gusting 5 25.6
2020-Jul-10 00:05 169 1 gusting 5 25.6
2020-Jul-10 00:01 206 1 gusting 6 25.6
2020-Jul-09 23:55 194 2 gusting 6 26.1
2020-Jul-09 23:50 182 1 gusting 8 26.1
2020-Jul-09 23:46 173 2 gusting 5 26.1
2020-Jul-09 23:35 180 2 gusting 6 26.1
2020-Jul-09 23:30 216 3 gusting 9 26.7
2020-Jul-09 23:25 154 3 gusting 11 26.7
2020-Jul-09 23:20 169 3 gusting 11 26.7
2020-Jul-09 23:15 225 3 gusting 8 26.7
2020-Jul-09 23:10 140 4 gusting 8 26.7
2020-Jul-09 23:05 174 3 gusting 8 27.2
2020-Jul-09 23:00 149 3 gusting 8 27.2
2020-Jul-09 22:55 209 2 gusting 7 27.2
2020-Jul-09 22:50 208 2 gusting 7 27.2
2020-Jul-09 22:47 201 3 gusting 7 27.2
2020-Jul-09 22:35 227 4 gusting 9 27.8
2020-Jul-09 22:30 188 3 gusting 6 27.8
2020-Jul-09 22:25 207 1 gusting 8 27.8
2020-Jul-09 22:20 182 2 gusting 8 27.2
2020-Jul-09 22:16 182 4 gusting 10 27.2
2020-Jul-09 22:10 205 4 gusting 10 27.2
2020-Jul-09 22:05 190 4 gusting 9 27.8
2020-Jul-09 22:00 124 5 gusting 10 27.8
2020-Jul-09 21:55 142 3 gusting 7 28.3
2020-Jul-09 21:50 189 1 gusting 10 28.3
2020-Jul-09 21:45 201 3 gusting 9 28.3
2020-Jul-09 21:35 190 3 gusting 8 28.3
2020-Jul-09 21:25 198 3 gusting 10 28.3
2020-Jul-09 21:20 187 3 gusting 10 28.3
2020-Jul-09 21:10 217 2 gusting 8 28.3
2020-Jul-09 21:00 205 4 gusting 9 28.3
2020-Jul-09 20:55 257 4 gusting 9 28.3
2020-Jul-09 20:50 218 6 gusting 13 28.3
2020-Jul-09 20:45 156 5 gusting 13 28.9
2020-Jul-09 20:40 184 3 gusting 9 28.9
2020-Jul-09 20:35 164 3 gusting 9 28.9
2020-Jul-09 20:30 226 4 gusting 7 28.9
2020-Jul-09 20:25 187 3 gusting 6 28.9
2020-Jul-09 20:15 180 4 gusting 8 28.9
2020-Jul-09 20:05 271 4 gusting 8 28.9
2020-Jul-09 20:00 257 2 gusting 9 28.9
2020-Jul-09 19:55 252 3 gusting 10 28.9
2020-Jul-09 19:50 151 4 gusting 8 28.9
2020-Jul-09 19:45 157 2 gusting 9 28.9
2020-Jul-09 19:40 152 5 gusting 9 28.3
2020-Jul-09 19:30 248 3 gusting 9 28.9
2020-Jul-09 19:25 144 6 gusting 12 28.9
2020-Jul-09 19:20 165 4 gusting 10 29.4
2020-Jul-09 19:15 186 4 gusting 12 29.4
2020-Jul-09 19:05 143 5 gusting 12 28.9
2020-Jul-09 18:55 202 2 gusting 10 29.4
2020-Jul-09 18:50 160 3 gusting 10 29.4
2020-Jul-09 18:45 159 4 gusting 8 29.4
2020-Jul-09 18:40 202 5 gusting 8 28.9
2020-Jul-09 18:35 237 3 gusting 9 28.9
2020-Jul-09 18:30 165 3 gusting 8 28.9
2020-Jul-09 18:25 154 6 gusting 9 28.9
2020-Jul-09 18:20 178 5 gusting 7 28.9
2020-Jul-09 18:05 196 4 gusting 12 28.9
2020-Jul-09 18:00 215 4 gusting 12 28.9
2020-Jul-09 17:55 204 3 gusting 10 28.9
2020-Jul-09 17:50 218 4 gusting 10 28.9
2020-Jul-09 17:45 193 4 gusting 10 28.9
2020-Jul-09 17:35 159 3 gusting 8 28.9
2020-Jul-09 17:31 201 3 gusting 10 28.9
2020-Jul-09 17:26 150 4 gusting 9 28.9
2020-Jul-09 17:21 223 4 gusting 8 28.9
2020-Jul-09 17:16 175 5 gusting 10 28.3
2020-Jul-09 17:05 166 3 gusting 9 28.3
2020-Jul-09 17:02 170 5 gusting 9 28.3
2020-Jul-09 16:56 165 6 gusting 9 28.3
2020-Jul-09 16:51 161 3 gusting 10 28.3
2020-Jul-09 16:46 217 5 gusting 10 28.3
2020-Jul-09 16:40 216 4 gusting 10 28.3
2020-Jul-09 16:36 188 3 gusting 8 28.3
2020-Jul-09 16:31 169 3 gusting 8 28.3
2020-Jul-09 16:25 209 2 gusting 10 28.3
2020-Jul-09 16:21 169 5 gusting 10 28.3
2020-Jul-09 16:17 178 2 gusting 7 28.3
2020-Jul-09 16:05 166 5 gusting 10 27.2
2020-Jul-09 16:01 163 3 gusting 8 26.7
2020-Jul-09 15:56 165 1 gusting 6 26.1
2020-Jul-09 15:50 330 2 gusting 3 25.6
2020-Jul-09 15:46 348 0 gusting 4 25.6
2020-Jul-09 15:40 348 1 gusting 4 25.6
2020-Jul-09 15:35 355 0 gusting 3 25.6
2020-Jul-09 15:31 333 0 gusting 4 25.6
2020-Jul-09 15:25 333 2 gusting 4 25.0
2020-Jul-09 15:20 331 2 gusting 4 25.6
2020-Jul-09 15:16 330 1 gusting 2 25.0
2020-Jul-09 15:05 330 0 gusting 1 25.0
2020-Jul-09 15:01 330 0 gusting 2 25.0